DW1980 Weather Reports


Display with metric or nautical units.
time (UTC)temp
F
wind
direction
speed
MPH
gust
MPH
rain 1hr
in
rain 24hr
in
rain mn
in
humidity
%
barometer
mb
20260505022853 53 108 0.0 0.0 0.00 0.00 0.00 86 1011.4
20260505022344 53 108 0.0 0.0 0.00 0.00 0.00 85 1011.5
20260505021854 53 108 0.0 1.0 0.00 0.00 0.00 85 1011.4
20260505021621 53 108 0.0 1.0 0.00 0.00 0.00 84 1011.4
20260505021538 53 0 0.0 1.0 0.00 0.00 0.00 84 1010.9
20260505021344 53 108 0.0 1.0 0.00 0.00 0.00 85 1011.4
20260505020854 53 108 0.0 1.0 0.00 0.00 0.00 84 1011.4
20260505020344 54 108 0.0 1.0 0.00 0.00 0.00 83 1011.4
20260505020112 53 108 0.0 1.0 0.00 0.00 0.00 84 1011.4
20260505020042 53 0 0.0 1.0 0.00 0.00 0.00 83 1011.0
20260505015913 54 108 0.0 1.0 0.00 0.00 0.00 84 1011.4
20260505015343 54 108 0.0 0.0 0.00 0.00 0.00 83 1011.3
20260505014852 54 108 0.0 0.0 0.00 0.00 0.00 83 1011.3
20260505014620 54 108 0.0 0.0 0.00 0.00 0.00 83 1011.3
20260505014542 54 0 0.0 0.0 0.00 0.00 0.00 82 1010.9
20260505014342 54 108 0.0 0.0 0.00 0.00 0.00 83 1011.3
20260505013853 54 108 0.0 0.0 0.00 0.00 0.00 82 1011.3
20260505013343 55 108 0.0 0.0 0.00 0.00 0.00 82 1011.2
20260505013111 54 108 0.0 1.0 0.00 0.00 0.00 82 1011.3
20260505013044 54 0 0.0 1.0 0.00 0.00 0.00 81 1010.8
20260505012849 55 108 0.0 1.0 0.00 0.00 0.00 82 1011.2
20260505012359 55 108 0.0 1.0 0.00 0.00 0.00 81 1011.1
20260505011848 55 108 0.0 1.0 0.00 0.00 0.00 81 1011.1
20260505011617 55 108 0.0 1.0 0.00 0.00 0.00 81 1011.1
20260505011545 55 0 0.0 1.0 0.00 0.00 0.00 80 1010.8
20260505011339 55 108 0.0 1.0 0.00 0.00 0.00 81 1011.1
20260505010849 56 108 0.0 1.0 0.00 0.00 0.00 81 1011.0
20260505010400 56 108 1.0 2.0 0.00 0.00 0.00 81 1010.9
20260505010118 55 108 0.0 2.0 0.00 0.00 0.00 80 1010.8
20260505010055 56 108 0.0 2.0 0.00 0.00 0.00 80 1010.6
20260505005845 56 108 1.0 2.0 0.00 0.00 0.00 80 1010.8
20260505005337 57 108 1.0 2.0 0.00 0.00 0.00 79 1010.7
20260505004847 57 108 1.0 2.0 0.00 0.00 0.00 78 1010.6
20260505004615 57 108 0.0 2.0 0.00 0.00 0.00 77 1010.6
20260505004540 57 0 0.0 1.0 0.00 0.00 0.00 76 1010.3
20260505004337 57 108 0.0 1.0 0.00 0.00 0.00 76 1010.6
20260505003847 58 108 0.0 1.0 0.00 0.00 0.00 76 1010.4
20260505003357 58 108 0.0 2.0 0.00 0.00 0.00 75 1010.5
20260505003101 58 108 0.0 2.0 0.00 0.00 0.00 74 1010.3
20260505003037 58 0 0.0 2.0 0.00 0.00 0.00 74 1010.1
20260505002844 58 108 1.0 2.0 0.00 0.00 0.00 74 1010.3
20260505002337 59 171 0.0 2.0 0.00 0.00 0.00 73 1010.2
20260505001847 59 171 0.0 2.0 0.00 0.00 0.00 72 1010.2
20260505001612 59 242 0.0 3.0 0.00 0.00 0.00 72 1010.1
20260505001537 59 175 0.0 4.0 0.00 0.00 0.00 71 1009.9
20260505001336 60 168 1.0 3.0 0.00 0.00 0.00 71 1010.2
20260505000847 60 171 0.0 2.0 0.00 0.00 0.00 70 1010.1
20260505000358 60 212 0.0 2.0 0.00 0.00 0.00 70 1010.0
20260505000118 60 185 0.0 3.0 0.00 0.00 0.00 68 1009.9
20260505000047 60 0 0.0 3.0 0.00 0.00 0.00 67 1009.7
20260504235845 61 185 0.0 3.0 0.00 0.00 0.00 68 1009.9
20260504235353 61 212 1.0 3.0 0.00 0.00 0.00 67 1009.8
20260504234844 62 236 1.0 5.0 0.00 0.00 0.00 65 1009.8
20260504234607 61 235 1.0 5.0 0.00 0.00 0.00 65 1009.8
20260504234541 61 180 2.0 6.0 0.00 0.00 0.00 65 1009.5
20260504234414 62 203 2.0 5.0 0.00 0.00 0.00 64 1009.8
20260504233842 62 239 3.0 6.0 0.00 0.00 0.00 64 1009.7
20260504233351 63 191 3.0 6.0 0.00 0.00 0.00 63 1009.5
20260504233114 62 163 1.0 4.0 0.00 0.00 0.00 63 1009.5
20260504233040 62 167 1.0 5.0 0.00 0.00 0.00 63 1009.2
20260504232838 63 175 2.0 5.0 0.00 0.00 0.00 62 1009.4
20260504232348 63 175 2.0 8.0 0.00 0.00 0.00 61 1009.4
20260504231837 64 132 2.0 6.0 0.00 0.00 0.00 61 1009.3
20260504231607 63 194 2.0 6.0 0.00 0.00 0.00 60 1009.3
20260504231539 63 196 2.0 6.0 0.00 0.00 0.00 60 1009.1
20260504231408 64 211 2.0 6.0 0.00 0.00 0.00 60 1009.3
20260504230837 64 217 2.0 6.0 0.00 0.00 0.00 59 1009.3
20260504230348 64 200 3.0 6.0 0.00 0.00 0.00 59 1009.2
20260504230116 64 230 3.0 6.0 0.00 0.00 0.00 58 1009.1
20260504230037 64 215 2.0 5.0 0.00 0.00 0.00 57 1008.9
20260504225855 65 204 2.0 4.0 0.00 0.00 0.00 58 1009.2
20260504225343 65 195 2.0 6.0 0.00 0.00 0.00 57 1009.1
20260504224854 65 202 4.0 7.0 0.00 0.00 0.00 57 1009.1
20260504224602 65 247 3.0 7.0 0.00 0.00 0.00 57 1009.1
20260504224543 65 183 3.0 8.0 0.00 0.00 0.00 56 1008.9
20260504224343 65 173 3.0 8.0 0.00 0.00 0.00 56 1009.1
20260504223915 66 210 4.0 7.0 0.00 0.00 0.00 56 1009.1
20260504223345 66 170 2.0 6.0 0.00 0.00 0.00 57 1009.1
20260504223111 66 154 1.0 4.0 0.00 0.00 0.00 58 1009.0
20260504223040 66 154 1.0 6.0 0.00 0.00 0.00 57 1008.9
20260504222914 66 202 2.0 6.0 0.00 0.00 0.00 57 1009.1
20260504222343 67 169 2.0 6.0 0.00 0.00 0.00 57 1009.1
20260504221913 67 148 3.0 7.0 0.00 0.00 0.00 55 1009.2
20260504221542 67 203 2.0 7.0 0.00 0.00 0.00 55 1008.9
20260504221342 67 198 4.0 7.0 0.00 0.00 0.00 53 1009.3
20260504220853 68 122 2.0 6.0 0.00 0.00 0.00 56 1009.3
20260504220345 68 194 2.0 8.0 0.00 0.00 0.00 52 1009.2
20260504220110 67 231 3.0 8.0 0.00 0.00 0.00 52 1009.3
20260504220048 67 187 3.0 8.0 0.00 0.00 0.00 52 1009.1
20260504215851 68 173 4.0 8.0 0.00 0.00 0.00 52 1009.4
20260504215341 68 159 3.0 7.0 0.00 0.00 0.00 53 1009.3
20260504214852 68 219 2.0 5.0 0.00 0.00 0.00 55 1009.4
20260504214609 68 145 2.0 5.0 0.00 0.00 0.00 52 1009.3
20260504214539 68 219 2.0 6.0 0.00 0.00 0.00 50 1009.0
20260504214345 69 165 3.0 5.0 0.00 0.00 0.00 51 1009.3
20260504213837 69 192 3.0 7.0 0.00 0.00 0.00 50 1009.4
20260504213348 69 204 4.0 7.0 0.00 0.00 0.00 50 1009.4
20260504213114 69 184 4.0 7.0 0.00 0.00 0.00 49 1009.4
20260504213059 69 192 3.0 7.0 0.00 0.00 0.00 48 1009.2
20260504212854 69 108 3.0 6.0 0.00 0.00 0.00 51 1009.5
20260504212343 70 210 2.0 6.0 0.00 0.00 0.00 49 1009.4
20260504211914 70 141 4.0 6.0 0.00 0.00 0.00 49 1009.4
20260504211622 70 162 3.0 6.0 0.00 0.00 0.00 50 1009.4
20260504211544 70 145 3.0 7.0 0.00 0.00 0.00 49 1009.1
20260504211343 71 55 4.0 6.0 0.00 0.00 0.00 48 1009.4
20260504210837 71 200 4.0 7.0 0.00 0.00 0.00 47 1009.4
20260504210348 72 107 3.0 9.0 0.00 0.00 0.00 44 1009.4
20260504210109 71 214 3.0 9.0 0.00 0.00 0.00 39 1009.3
20260504210041 71 184 4.0 10.0 0.00 0.00 0.00 39 1009.1
20260504205835 72 199 5.0 9.0 0.00 0.00 0.00 38 1009.4
20260504205345 72 254 4.0 12.0 0.00 0.00 0.00 38 1009.4
20260504204854 72 193 6.0 12.0 0.00 0.00 0.00 39 1009.4
20260504204617 71 213 4.0 10.0 0.00 0.00 0.00 38 1009.4
20260504204543 71 192 4.0 10.0 0.00 0.00 0.00 38 1009.1
20260504204345 72 167 5.0 10.0 0.00 0.00 0.00 39 1009.4
20260504203855 72 186 5.0 10.0 0.00 0.00 0.00 40 1009.3
20260504203345 72 183 5.0 8.0 0.00 0.00 0.00 40 1009.4
20260504203103 71 152 5.0 8.0 0.00 0.00 0.00 40 1009.3
20260504203038 71 216 4.0 11.0 0.00 0.00 0.00 40 1009.0
20260504202850 72 224 3.0 11.0 0.00 0.00 0.00 40 1009.2
20260504202338 72 232 5.0 11.0 0.00 0.00 0.00 39 1009.4
20260504201850 72 223 6.0 10.0 0.00 0.00 0.00 40 1009.4
20260504201619 72 184 3.0 8.0 0.00 0.00 0.00 41 1009.3
20260504201537 72 165 4.0 9.0 0.00 0.00 0.00 41 1008.9
20260504201339 72 219 6.0 9.0 0.00 0.00 0.00 41 1009.5
20260504200851 72 250 4.0 8.0 0.00 0.00 0.00 39 1009.6
20260504200341 72 200 4.0 9.0 0.00 0.00 0.00 40 1009.6
20260504200105 71 186 2.0 9.0 0.00 0.00 0.00 39 1009.7
20260504200044 71 167 4.0 10.0 0.00 0.00 0.00 39 1009.2
20260504195908 72 221 5.0 10.0 0.00 0.00 0.00 40 1009.7
20260504195356 72 182 4.0 11.0 0.00 0.00 0.00 42 1009.6
20260504194907 72 211 6.0 11.0 0.00 0.00 0.00 41 1009.7
20260504194614 72 205 5.0 9.0 0.00 0.00 0.00 40 1009.9
20260504194541 72 168 4.0 8.0 0.00 0.00 0.00 41 1009.3
20260504194337 72 203 4.0 8.0 0.00 0.00 0.00 42 1009.8
20260504193847 72 169 3.0 10.0 0.00 0.00 0.00 41 1009.8
20260504193358 72 196 5.0 10.0 0.00 0.00 0.00 39 1009.8
20260504193103 71 207 6.0 10.0 0.00 0.00 0.00 39 1009.8
20260504193054 71 213 5.0 10.0 0.00 0.00 0.00 39 1009.4
20260504192845 72 235 5.0 10.0 0.00 0.00 0.00 38 1009.8
20260504192337 72 182 4.0 11.0 0.00 0.00 0.00 40 1010.0
20260504191847 72 203 5.0 11.0 0.00 0.00 0.00 41 1010.0
20260504191616 71 192 4.0 11.0 0.00 0.00 0.00 41 1010.1
20260504191539 71 222 5.0 11.0 0.00 0.00 0.00 40 1009.5
20260504191338 71 240 5.0 9.0 0.00 0.00 0.00 40 1010.0
20260504190847 72 234 6.0 9.0 0.00 0.00 0.00 41 1010.1
20260504190357 72 195 4.0 9.0 0.00 0.00 0.00 42 1010.2
20260504190041 72 207 4.0 12.0 0.00 0.00 0.00 42 1009.8
20260504185843 73 24 5.0 11.0 0.00 0.00 0.00 38 1010.1
20260504185353 72 263 4.0 8.0 0.00 0.00 0.00 44 1010.2
20260504184840 72 237 4.0 10.0 0.00 0.00 0.00 41 1010.2
20260504184612 71 199 3.0 11.0 0.00 0.00 0.00 39 1010.2
20260504184544 71 223 4.0 12.0 0.00 0.00 0.00 39 1009.7
20260504184412 72 236 5.0 11.0 0.00 0.00 0.00 40 1010.3
20260504183842 72 221 4.0 15.0 0.00 0.00 0.00 40 1010.3
20260504183354 73 323 3.0 15.0 0.00 0.00 0.00 38 1010.3
20260504183118 73 281 6.0 15.0 0.00 0.00 0.00 37 1010.5
20260504183055 73 286 5.0 13.0 0.00 0.00 0.00 37 1009.9
20260504182839 73 240 5.0 13.0 0.00 0.00 0.00 41 1010.3
20260504182351 72 238 3.0 13.0 0.00 0.00 0.00 41 1010.4
20260504181845 71 157 6.0 11.0 0.00 0.00 0.00 40 1010.4
20260504181607 71 236 6.0 11.0 0.00 0.00 0.00 39 1010.5
20260504181538 71 161 6.0 11.0 0.00 0.00 0.00 38 1009.9
20260504181353 72 213 6.0 11.0 0.00 0.00 0.00 39 1010.4
20260504180842 72 192 4.0 11.0 0.00 0.00 0.00 41 1010.7
20260504180352 72 186 4.0 16.0 0.00 0.00 0.00 43 1010.6
20260504180111 71 182 3.0 16.0 0.00 0.00 0.00 39 1010.8
20260504175837 71 259 7.0 16.0 0.00 0.00 0.00 38 1010.8
20260504175409 71 269 7.0 14.0 0.00 0.00 0.00 40 1010.8
20260504174837 71 208 7.0 14.0 0.00 0.00 0.00 40 1010.9
20260504174601 70 136 7.0 15.0 0.00 0.00 0.00 41 1011.0
20260504174538 70 239 6.0 15.0 0.00 0.00 0.00 41 1010.3
20260504174348 71 213 6.0 15.0 0.00 0.00 0.00 40 1010.8
20260504173837 71 288 7.0 15.0 0.00 0.00 0.00 42 1011.0
20260504173347 71 262 4.0 13.0 0.00 0.00 0.00 41 1010.9
20260504173106 70 271 3.0 13.0 0.00 0.00 0.00 43 1011.0
20260504173046 70 265 5.0 13.0 0.00 0.00 0.00 39 1010.3
20260504172913 71 271 6.0 13.0 0.00 0.00 0.00 38 1011.0
20260504172420 71 240 5.0 13.0 0.00 0.00 0.00 40 1011.0
20260504171844 70 315 4.0 9.0 0.00 0.00 0.00 40 1011.1
20260504171605 69 234 5.0 9.0 0.00 0.00 0.00 43 1011.3
20260504171547 68 217 5.0 11.0 0.00 0.00 0.00 43 1010.5
20260504171350 69 184 7.0 9.0 0.00 0.00 0.00 41 1011.3
20260504170840 70 228 2.0 14.0 0.00 0.00 0.00 44 1011.3
20260504170411 69 221 4.0 14.0 0.00 0.00 0.00 42 1011.4
20260504170110 69 92 7.0 14.0 0.00 0.00 0.00 40 1011.5
20260504160407 68 166 6.0 11.0 0.00 0.00 0.00 39 1012.1
20260504160112 68 186 4.0 10.0 0.00 0.00 0.00 45 1012.3
20260504150851 66 53 5.0 14.0 0.00 0.00 0.00 42 1012.8
20260504150343 66 284 5.0 13.0 0.00 0.00 0.00 43 1012.8
20260504150112 65 222 5.0 13.0 0.00 0.00 0.00 41 1013.1
20260504140847 62 230 5.0 9.0 0.00 0.00 0.00 48 1013.2
20260504140339 61 202 4.0 8.0 0.00 0.00 0.00 48 1013.2
20260504130344 57 228 3.0 5.0 0.00 0.00 0.00 53 1013.8
20260504130111 56 192 2.0 5.0 0.00 0.00 0.00 53 1014.0
20260504120110 52 188 2.0 8.0 0.00 0.00 0.00 61 1014.3
20260504110345 42 221 2.0 2.0 0.00 0.00 0.00 85 1013.9
20260504110107 41 215 1.0 2.0 0.00 0.00 0.00 86 1014.1
20260504100343 41 256 0.0 2.0 0.00 0.00 0.00 85 1013.7
20260504100120 40 256 0.0 3.0 0.00 0.00 0.00 85 1013.9
20260504081848 39 270 0.0 0.0 0.00 0.00 0.00 88 1013.5
20260504081614 38 270 0.0 0.0 0.00 0.00 0.00 88 1013.7
20260504081541 38 0 0.0 0.0 0.00 0.00 0.00 87 1012.9
20260504081338 39 276 0.0 0.0 0.00 0.00 0.00 88 1013.5
20260504080850 39 284 0.0 0.0 0.00 0.00 0.00 88 1013.5
20260504080340 39 285 0.0 0.0 0.00 0.00 0.00 88 1013.3
20260504080116 38 285 0.0 0.0 0.00 0.00 0.00 88 1013.5
20260504070355 39 285 0.0 0.0 0.00 0.00 0.00 88 1013.2
20260504070121 39 285 0.0 0.0 0.00 0.00 0.00 88 1013.4
20260504060116 38 288 0.0 0.0 0.00 0.00 0.00 89 1013.1
20260504050357 39 288 0.0 0.0 0.00 0.00 0.00 86 1012.7
20260504050117 38 288 0.0 0.0 0.00 0.00 0.00 86 1012.9
20260504045844 39 288 0.0 0.0 0.00 0.00 0.00 86 1012.7
20260504045353 39 288 0.0 0.0 0.00 0.00 0.00 86 1012.7
20260504044843 39 288 0.0 0.0 0.00 0.00 0.00 85 1012.7
20260504044614 39 288 0.0 0.0 0.00 0.00 0.00 85 1012.8
20260504044543 39 0 0.0 0.0 0.00 0.00 0.00 85 1012.0
20260504044415 39 288 0.0 0.0 0.00 0.00 0.00 85 1012.6
20260504043843 39 288 0.0 0.0 0.00 0.00 0.00 85 1012.6
20260504043354 39 288 0.0 0.0 0.00 0.00 0.00 85 1012.6
20260504043119 39 288 0.0 0.0 0.00 0.00 0.00 85 1012.7
20260504043049 39 0 0.0 0.0 0.00 0.00 0.00 84 1012.0
20260504042841 40 288 0.0 0.0 0.00 0.00 0.00 84 1012.6
20260504042351 40 288 0.0 0.0 0.00 0.00 0.00 84 1012.6
20260504041841 40 288 0.0 0.0 0.00 0.00 0.00 84 1012.4
20260504041608 39 288 0.0 0.0 0.00 0.00 0.00 84 1012.5
20260504041541 39 0 0.0 0.0 0.00 0.00 0.00 83 1011.8
20260504041351 40 288 0.0 0.0 0.00 0.00 0.00 84 1012.4
20260504040841 40 288 0.0 0.0 0.00 0.00 0.00 83 1012.4
20260504040351 40 288 0.0 0.0 0.00 0.00 0.00 83 1012.4
20260504040125 40 288 0.0 0.0 0.00 0.00 0.00 83 1012.5
20260504040041 40 0 0.0 0.0 0.00 0.00 0.00 82 1011.7
20260504035837 40 288 0.0 0.0 0.00 0.00 0.00 83 1012.3
20260504035407 41 288 0.0 0.0 0.00 0.00 0.00 83 1012.4
20260504034835 41 288 0.0 1.0 0.00 0.00 0.00 82 1012.4
20260504034603 40 288 0.0 1.0 0.00 0.00 0.00 82 1012.5
20260504034544 40 0 0.0 1.0 0.00 0.00 0.00 81 1011.7
20260504034347 41 288 0.0 1.0 0.00 0.00 0.00 81 1012.5
20260504033837 41 288 0.0 0.0 0.00 0.00 0.00 81 1012.4
20260504033347 41 288 0.0 0.0 0.00 0.00 0.00 81 1012.3
20260504033112 41 288 0.0 0.0 0.00 0.00 0.00 81 1012.5
20260504033040 41 0 0.0 0.0 0.00 0.00 0.00 80 1011.7
20260504032855 42 288 0.0 0.0 0.00 0.00 0.00 80 1012.4
20260504032345 42 288 0.0 0.0 0.00 0.00 0.00 80 1012.4
20260504031836 42 288 0.0 1.0 0.00 0.00 0.00 79 1012.3
20260504031604 41 288 0.0 1.0 0.00 0.00 0.00 79 1012.5
20260504031545 41 0 0.0 1.0 0.00 0.00 0.00 78 1011.6
20260504031346 42 288 0.0 1.0 0.00 0.00 0.00 78 1012.4
20260504030837 42 288 0.0 1.0 0.00 0.00 0.00 78 1012.3
20260504030348 42 288 0.0 0.0 0.00 0.00 0.00 77 1012.3
20260504030113 42 288 0.0 0.0 0.00 0.00 0.00 77 1012.5
20260504030047 42 0 0.0 0.0 0.00 0.00 0.00 76 1011.7
20260504025916 43 288 0.0 0.0 0.00 0.00 0.00 76 1012.3
20260504025345 43 288 0.0 0.0 0.00 0.00 0.00 76 1012.4
20260504024838 43 288 0.0 0.0 0.00 0.00 0.00 75 1012.4
20260504024605 43 288 0.0 0.0 0.00 0.00 0.00 75 1012.6
20260504024540 43 0 0.0 0.0 0.00 0.00 0.00 75 1011.8
20260504024350 43 288 0.0 0.0 0.00 0.00 0.00 75 1012.5
20260504023838 43 288 0.0 0.0 0.00 0.00 0.00 74 1012.5
20260504023349 44 288 0.0 0.0 0.00 0.00 0.00 74 1012.4
20260504023109 43 288 0.0 0.0 0.00 0.00 0.00 74 1012.5
20260504023040 43 0 0.0 0.0 0.00 0.00 0.00 73 1011.7